This demonstration page uses our WeatherBlox Daily Observations layout. Learn more.

Left ArrowRight Arrow

Hourly Observations for February 29, 2020

Temp ( °F °C ) Dew Point ( °F °C ) Humidity (%) Winds ( mph kmh ) Pressure ( in mb ) Visibility ( mi km ) Precip ( " mm )
12:59 am 00:59 Mostly Cloudy 43 6.1 32 0 65 65 WSW 6 9 29.95 1014 10 16 0.00 0.00
1:59 am 01:59 Partly Cloudy 43 6.1 31 -0.6 63 63 W 14 22 29.96 1015 10 16 0.00 0.00
2:59 am 02:59 Mostly Clear 41 5 29 -1.7 62 62 W 10 17 29.96 1015 10 16 0.00 0.00
3:59 am 03:59 Mostly Clear 39 3.9 28 -2.2 65 65 W 9 15 29.95 1014 10 16 0.00 0.00
4:59 am 04:59 Mostly Clear 39 3.9 29 -1.7 67 67 W 6 9 29.96 1015 10 16 0.00 0.00
5:59 am 05:59 Mostly Clear 38 3.3 28 -2.2 68 68 W 7 11 29.97 1015 10 16 0.00 0.00
6:59 am 06:59 Mostly Sunny 38 3.3 28 -2.2 68 68 WSW 7 11 29.97 1015 10 16 0.00 0.00
7:59 am 07:59 Mostly Cloudy 41 5 29 -1.7 62 62 W 10 17 29.98 1015 10 16 0.00 0.00
8:59 am 08:59 Partly Cloudy 42 5.6 28 -2.2 58 58 W 12 19 29.99 1016 10 16 0.00 0.00
9:59 am 09:59 Partly Cloudy 44 6.7 27 -2.8 51 51 WNW 17 28 29.99 1016 10 16 0.00 0.00
10:59 am 10:59 Partly Cloudy 47 8.3 27 -2.8 46 46 NNW 17 28 30.00 1016 10 16 0.00 0.00
11:59 am 11:59 Partly Cloudy 45 7.2 22 -5.6 40 40 WNW 18 30 30.00 1016 10 16 0.00 0.00
12:59 pm 12:59 Partly Cloudy 47 8.3 21 -6.1 36 36 NW 22 35 29.98 1015 10 16 0.00 0.00
1:59 pm 13:59 Partly Cloudy 47 8.3 19 -7.2 33 33 NW 21 33 29.98 1015 10 16 0.00 0.00
2:59 pm 14:59 Mostly Sunny 47 8.3 15 -9.4 28 28 NW 20 31 30.00 1016 10 16 0.00 0.00
3:59 pm 15:59 Mostly Sunny 45 7.2 14 -10 29 29 WNW 22 35 30.01 1016 10 16 0.00 0.00
4:59 pm 16:59 Mostly Sunny 43 6.1 12 -11.1 28 28 NW 21 33 30.04 1017 10 16 0.00 0.00
5:59 pm 17:59 Mostly Clear 42 5.6 13 -10.6 30 30 NW 21 33 30.07 1018 10 16 0.00 0.00
6:59 pm 18:59 Clear 41 5 13 -10.6 32 32 NW 17 28 30.10 1019 10 16 0.00 0.00
7:59 pm 19:59 Clear 40 4.4 13 -10.6 33 33 NW 14 22 30.13 1020 10 16 0.00 0.00
8:59 pm 20:59 Clear 40 4.4 12 -11.1 32 32 NW 13 20 30.15 1021 10 16 0.00 0.00
9:59 pm 21:59 Clear 39 3.9 13 -10.6 34 34 NW 14 22 30.17 1022 10 16 0.00 0.00
10:59 pm 22:59 Clear 38 3.3 13 -10.6 36 36 NW 12 19 30.19 1022 10 16 0.00 0.00
11:59 pm 23:59 Clear 37 2.8 13 -10.6 37 37 NW 16 26 30.20 1023 10 16 0.00 0.00

Powered by AerisWeather